This is the latest recevied weather packets stored in our database for station/object SQ9RHX-13. If no packets are shown the sender has not sent any weather packets the latest 10 day(s).
| Time | Temp. | Humidity | Pressure | Rain* | Wind** | Luminosity | Snow |
|---|---|---|---|---|---|---|---|
| 1777437303 | 2.78° C | 59% | 1031.2 hPa | 0 mm | - | 40 W/m² | - |
| 1777437002 | 2.22° C | 60% | 1031 hPa | 0 mm | - | 26 W/m² | - |
| 1777436702 | 2.22° C | 60% | 1031.2 hPa | 0 mm | - | 23 W/m² | - |
| 1777436405 | 2.22° C | 61% | 1031 hPa | 0 mm | - | 23 W/m² | - |
| 1777436102 | 2.22° C | 62% | 1030.9 hPa | 0 mm | - | 20 W/m² | - |
| 1777435804 | 1.67° C | 63% | 1031.1 hPa | 0 mm | - | 18 W/m² | - |
| 1777435505 | 1.67° C | 64% | 1030.8 hPa | 0 mm | - | 16 W/m² | - |
| 1777435203 | 1.67° C | 64% | 1031 hPa | 0 mm | - | 14 W/m² | - |
| 1777434904 | 1.67° C | 64% | 1030.7 hPa | 0 mm | - | 11 W/m² | - |
| 1777434604 | 1.67° C | 64% | 1030.6 hPa | 0 mm | - | 9 W/m² | - |
| 1777434303 | 1.67° C | 65% | 1030.6 hPa | 0 mm | - | 7 W/m² | - |
| 1777434003 | 1.67° C | 65% | 1030.7 hPa | 0 mm | - | 5 W/m² | - |
| 1777433704 | 1.67° C | 66% | 1030.5 hPa | 0 mm | - | 3 W/m² | - |
| 1777433404 | 1.11° C | 67% | 1030.4 hPa | 0 mm | - | 2 W/m² | - |
| 1777433103 | 1.11° C | 68% | 1030.5 hPa | 0 mm | - | 1 W/m² | - |
| 1777432804 | 1.11° C | 69% | 1030.5 hPa | 0 mm | - | 0 W/m² | - |
| 1777432503 | 0.56° C | 71% | 1030.4 hPa | 0 mm | - | 0 W/m² | - |
| 1777432205 | 0.56° C | 72% | 1030.4 hPa | 0 mm | - | 0 W/m² | - |
| 1777431904 | 0° C | 75% | 1030.3 hPa | 0 mm | - | 0 W/m² | - |
| 1777431603 | 0° C | 76% | 1030.4 hPa | 0 mm | - | 0 W/m² | - |
| 1777431304 | 0° C | 77% | 1030.3 hPa | 0 mm | - | 0 W/m² | - |
| 1777431005 | 0° C | 77% | 1030.3 hPa | 0 mm | - | 0 W/m² | - |
| 1777430703 | 0° C | 77% | 1030.2 hPa | 0 mm | - | 0 W/m² | - |
| 1777430406 | 0° C | 75% | 1030.1 hPa | 0 mm | - | 0 W/m² | - |
| 1777430102 | 0.56° C | 75% | 1030.2 hPa | 0 mm | - | 0 W/m² | - |
* Rain latest hour (hover to see other rain measurements)
** Current wind speed in m/s (hover to see current wind gust speed)